Weather History for Ames, IA

Change the Weather History Date:

Sunday, September 15, 2013

  Actual Average Record
Temperature  
Mean Temperature 62 °F 63 °F  
Max Temperature 70 °F 76 °F 84 °F (1998)
Min Temperature 54 °F 50 °F 30 °F (2007)
Degree Days  
Heating Degree Days 3 4  
Month to date heating degree days 19 35  
Since 1 July heating degree days 33 51  
Cooling Degree Days 0 2  
Month to date cooling degree days 108 42  
Year to date cooling degree days 857 725  
Growing Degree Days 14 (Base 50)    
Moisture  
Dew Point 53 °F    
Average Humidity 65    
Maximum Humidity 81    
Minimum Humidity 48    
Precipitation  
Precipitation 0.00 in 0.11 in 0.63 in (1992)
Month to date precipitation 0.36 1.68  
Sea Level Pressure  
Sea Level Pressure 30.01 in    
Wind  
Wind Speed 10 mph (North)    
Max Wind Speed 22 mph    
Max Gust Speed 25 mph    
Visibility 10 miles    
Events      
T = Trace of Precipitation, MM = Missing Value Source: NWS Daily Summary

Daily Weather History Graph

Daily Weather History Graph

Search for Another Location

Airport:

Trip Planner

Search our weather history database for the weather conditions in past years. The results will help you decide how hot, cold, wet, or windy it might be!

Date:

Astronomy

Sep. 15, 2013 Rise Set
Actual Time 6:54 AM CDT 7:23 PM CDT
Civil Twilight 6:26 AM CDT 7:51 PM CDT
Nautical Twilight 5:53 AM CDT 8:24 PM CDT
Astronomical Twilight 5:19 AM CDT 8:58 PM CDT
Moon 4:54 PM CDT (9/15) 2:30 AM CDT (9/15)
Length of Visible Light 13h 24m
Length of Day
12h 28m
Waxing Gibbous, 82% of the Moon is Illuminated
Sep 15
Waxing Gibbous
Sep 19
Full
Sep 26
Last Quarter
Oct 4
New
Oct 11
First Quarter

Hourly Weather History & Observations

Time (CDT) Temp. Dew Point Humidity Pressure Visibility Wind Dir Wind Speed Gust Speed Precip Events Conditions
12:53 AM 66.9 °F 46.9 °F 49% 29.88 in 10.0 mi South 8.1 mph - N/A   Overcast
1:53 AM 66.9 °F 46.9 °F 49% 29.87 in 10.0 mi South 9.2 mph - N/A   Overcast
2:53 AM 66.9 °F 48.0 °F 51% 29.86 in 10.0 mi South 5.8 mph - N/A   Overcast
3:53 AM 66.9 °F 50.0 °F 54% 29.84 in 10.0 mi SSW 9.2 mph - N/A   Overcast
4:53 AM 66.9 °F 51.1 °F 57% 29.84 in 10.0 mi SSW 11.5 mph - N/A   Overcast
5:53 AM 64.0 °F 54.0 °F 70% 29.84 in 10.0 mi SSW 5.8 mph - N/A   Mostly Cloudy
6:53 AM 63.0 °F 55.9 °F 78% 29.86 in 10.0 mi SW 8.1 mph - N/A   Mostly Cloudy
7:53 AM 66.0 °F 57.9 °F 75% 29.88 in 10.0 mi WSW 8.1 mph - N/A   Mostly Cloudy
8:53 AM 66.9 °F 60.1 °F 79% 29.86 in 10.0 mi West 4.6 mph - N/A   Partly Cloudy
9:53 AM 70.0 °F 57.0 °F 63% 29.89 in 10.0 mi NNW 6.9 mph - N/A   Overcast
10:45 AM 66.2 °F 55.4 °F 68% 29.97 in 10.0 mi NNW 15.0 mph 25.3 mph N/A   Overcast
10:53 AM 66.0 °F 57.0 °F 73% 29.95 in 10.0 mi North 12.7 mph - N/A   Overcast
11:53 AM 66.9 °F 55.9 °F 68% 29.99 in 10.0 mi North 17.3 mph - N/A   Overcast
12:53 PM 68.0 °F 55.0 °F 63% 30.01 in 10.0 mi NNE 15.0 mph - N/A   Overcast
1:53 PM 66.0 °F 54.0 °F 65% 30.03 in 10.0 mi North 15.0 mph - N/A   Overcast
2:53 PM 64.9 °F 54.0 °F 68% 30.05 in 10.0 mi North 17.3 mph 24.2 mph N/A   Overcast
3:53 PM 66.0 °F 54.0 °F 65% 30.07 in 10.0 mi NNE 16.1 mph - N/A   Overcast
4:53 PM 66.0 °F 53.1 °F 63% 30.10 in 10.0 mi North 15.0 mph - N/A   Overcast
5:28 PM 64.4 °F 53.6 °F 68% 30.13 in 10.0 mi NNE 11.5 mph 19.6 mph N/A   Overcast
5:53 PM 64.9 °F 53.1 °F 65% 30.12 in 10.0 mi North 9.2 mph - N/A   Overcast
6:53 PM 64.9 °F 52.0 °F 63% 30.15 in 10.0 mi NNE 9.2 mph - N/A   Overcast
7:53 PM 64.0 °F 52.0 °F 65% 30.17 in 10.0 mi NE 9.2 mph - N/A   Overcast
8:53 PM 63.0 °F 52.0 °F 67% 30.19 in 10.0 mi North 10.4 mph - N/A   Overcast
9:53 PM 63.0 °F 51.1 °F 65% 30.21 in 10.0 mi NNE 8.1 mph - N/A   Overcast
10:53 PM 59.0 °F 51.1 °F 75% 30.22 in 10.0 mi NNE 5.8 mph - N/A   Clear
11:53 PM 57.0 °F 51.1 °F 81% 30.24 in 10.0 mi NNE 5.8 mph - N/A   Clear